Showing default

DB-GLOBE MISSION EARTH-U, 68459

Orbit data source: Space-Track

DB-GLOBE MISSION EARTH-U, 68459 is a payload satellite owned by NearSpaceLaunch (US) in SSO that was launched on Mon, 30 Mar 2026 UTC via an FALCON 9 launch vehicle from the Air Force Western Test Range (AFWTR). Payload-class satellites include a variety of spacecraft equipped with specific instruments for various scientific and technological missions. These include communications satellites like Starlink; space stations such as the ISS; scientific satellites like the Hubble; Earth observation satellites from companies like Planet Labs, Umbra, and HawkEye 360; GPS; miniature CubeSats for education and research; and military/defense satellites.

Loading next visibility...
Identifier
68459, 2026-067AV
Orbit
SSO
Country
Flag of USUS
Related business
Manufacturer
NearSpaceLaunch
Mission
Operational Commercial Technology
Bus & Motor
THINSAT 0.5U, Unknown motor
Mass
0.5 kg wet, 0.5 kg dry
Launch date (UTC)
2026-03-30 (6 months ago)
Launch vehicle
FALCON 9
Launch site
Air Force Western Test Range (AFWTR)
Object type
Payload
Rocket body
Debris
Shape & HBR
Box + 2 Pan, 0.2 m
Radar Cross Section
0.017 m², Medium (>0.1 m² and < 1m²)

Expand to show TLE details & history
Last TLE update: 1 day ago

TLE from 1 day ago
0 DB-GLOBE MISSION EARTH-U
1 68459U 26067AV  26262.32840552  .00003718  00000-0  18422-3 0  9999
2 68459  97.4638 219.2943 0007806  95.6486 264.5638 15.18346658 26212
Epoch: 2026-09-19T07:52Z
TLE epoch observation values (Epoch: 2026-09-19T07:52:54.236Z)
Latitude
-0.00009°
Longitude
102.82981°
Altitude
514.437 km
Speed
7.606 km/s
True Right ascension
14h 37m 10s
True Declination
0° 00' 00"
Sunlit
Object was in daylight at epoch
Visualization orbit readout
Latitude
Unknown
Longitude
Unknown
Altitude
Unknown
Speed
Unknown
Apparent Right ascension
Unknown
Apparent Declination
Unknown
Sunlit
N/A
Visualization observer readout
Local Sidereal Time
05:12:23
Azimuth
Unknown
Elevation
Unknown
Doppler factor
Unknown
Orbital elements
Apogee altitude
513.183 km
Perigee altitude
502.432 km
Semi-major axis
6,885.945 km
Eccentricity
0.00078
Inclination
97.4638°
RAAN
219.2943°
Arg. of periapsis
95.6486°
True anomaly
264.47476°
Mean anomaly
264.5638°
Eccentric anomaly
264.51928°
Mean motion
3.79838 °/min
Orbital period
94.78 mins
BSTAR
0.00018422
Loading maneuver chart data...
Computing Atmospheric mass density...
Loading historical data...
Loading historical data...
Loading historical data...
Loading historical data...
Loading historical data...
Loading historical data...
Loading historical data...

Documentation

Showing up to 5 results
|